Regional Weather Roundup
Issued by NWS

Home | Current Version | Previous Version | Graphics & Text | Print | Product List | Glossary On
Versions: 1 2 3 4 5 6 7 8 9 10 11 12 13 14 15 16 17 18 19 20 21 22 23 24 25 26 27 28 29 30 31 32 33 34 35 36 37 38 39 40 41 42 43 44 45 46 47 48 49 50
000
ASUS43 KLOT 061021
RWRIL

ILLINOIS REGIONAL WEATHER ROUNDUP
NATIONAL WEATHER SERVICE CHICAGO/ROMEOVILLE IL
500 AM CDT MON JUL 06 2015

NOTE: "FAIR" INDICATES FEW OR NO CLOUDS BELOW 12,000 FEET WITH NO
SIGNIFICANT WEATHER AND/OR OBSTRUCTIONS TO VISIBILITY.

* THESE STATIONS ARE NOT UNDER NWS QUALITY CONTROL. THEY ALSO MAY NOT
  REPORT WEATHER SUCH AS PRECIPITATION OR FOG.

ILZ001-002-007-009-015-016-024-061100-
NORTHWEST ILLINOIS

CITY           SKY/WX    TMP DP  RH WIND       PRES   REMARKS
MOLINE         MOCLDY    71  66  84 S8        29.92F HAZE
STERLING*      MOCLDY    68  64  88 S3        29.94F
SAVANNA*       MOCLDY    68  65  90 S8        29.92F FOG
$$

ILZ003-004-008-010-011-017-018-061100-
NORTH CENTRAL ILLINOIS

CITY           SKY/WX    TMP DP  RH WIND       PRES   REMARKS
ROCKFORD       PTCLDY    66  62  87 S9        29.97F
FREEPORT*      MOCLDY    66  63  91 S9        29.96F FOG
ROCHELLE*      PTCLDY    64  62  94 S6        29.97F FOG
DE KALB*       CLEAR     62  60  94 S7        29.99S FOG
PERU*          CLEAR     66  62  86 S6        29.99S FOG
$$

ILZ005-006-012>014-019>023-061100-
NORTHEAST ILLINOIS

CITY           SKY/WX    TMP DP  RH WIND       PRES   REMARKS
CHICAGO-OHARE  PTCLDY    65  62  90 S6        29.97F
CHICAGO-MIDWAY PTCLDY    71  65  81 S9        29.97F
AURORA         CLEAR     65  61  87 S3        29.99F FOG
LANSING*       CLEAR     64  61  88 S5        30.01F
JOLIET*        CLEAR     67  65  94 SE5       29.98F FOG
WAUKEGAN       CLEAR     61  60  97 CALM      29.97F FOG
DUPAGE AIRPORT CLEAR     65  62  90 S6        29.97F FOG
KANKAKEE*      CLEAR     64  64  97 SE6       30.02S FOG
WHEELING       CLEAR     65  61  87 S5        29.98F
MORRIS*        CLEAR     65  63  94 S6        29.96F FOG
ROMEOVILLE*    CLEAR     65  63  93 S8        29.98F FOG
NORTHERLY ISL    N/A     68  62  81 S7          N/A
$$

LMZ740>746-061100-
SOUTHERN LAKE MICHIGAN

STATION/POSITION SKY/WX   TEMP    WIND        PRES    VSBY  WAVE
                          AIR SEA DIR/SP/G                  HT/PER
                          (F)     (DEG/KT/KT) (MB)    (MI)  (FT/S)
HARRISON CRIB              69     170/ 11/ 13   N/A
BURNHAM HARBOR             68     170/  6/  6   N/A
CALUMET HARBOR             69     170/  7/  9   N/A
BURNS HARBOR               69     180/  8/ 11 1017.3R
MICHIGAN CITY              69     150/ 10/ 14   N/A
MICHIGAN CITY 6N           67 66  190/  8/ 10   N/A           1
ST. JOSEPH                 67 65  210/ 10/ 10   N/A           1
$$

ILZ025>027-034>036-040-047-049-050-058-095>099-061100-
WEST-CENTRAL ILLINOIS

CITY           SKY/WX    TMP DP  RH WIND       PRES   REMARKS
QUINCY         PTCLDY    73  70  90 S8        29.94F
GALESBURG*     MOCLDY    69  66  92 SE6       29.95F FOG
MACOMB*        PTCLDY    69  68  97 S6        29.97F FOG
JACKSONVILLE*  PTCLDY    73  69  88 S6        29.98S FOG
PITTSFIELD*    PTCLDY    70  68  93 SE5       29.98F FOG
$$

ILZ028>032-037-038-041>044-048-051>054-059>061-061100-
CENTRAL ILLINOIS

CITY           SKY/WX    TMP DP  RH WIND       PRES   REMARKS
PONTIAC        CLEAR     64  64  99 SE5       30.00F FOG
BLOOMINGTON    CLEAR     65  64  96 S6        30.03S
DECATUR        CLEAR     64  61  90 S5        30.02S FOG
PEORIA         CLEAR     70  64  81 S5        29.98S HAZE
LACON*         CLEAR     66  63  88 SE6       29.97S
LINCOLN*       CLEAR     65  63  91 SE3       30.00S FOG
SPRINGFIELD    CLEAR     71  66  84 S7        29.99F
TAYLORVILLE    CLEAR     64  63  94 S5        30.01S FOG
$$

ILZ033-039-045-046-055>057-062-063-061100-
EAST-CENTRAL ILLINOIS

CITY           SKY/WX    TMP DP  RH WIND       PRES   REMARKS
CHAMPAIGN      CLEAR     64  63  96 SE3       30.04S FOG
DANVILLE*        N/A     64  64 100 CALM      30.02R FOG
RANTOUL*       FOG       65  65  98 SE3       30.03S VSB 1/2
MATTOON        CLEAR     67  66  97 S6        30.03S FOG
PARIS*           N/A     65  65  99 CALM      30.05F FOG
$$

ILZ079-100>102-061100-
SOUTHWEST ILLINOIS

CITY           SKY/WX    TMP DP  RH WIND       PRES   REMARKS
ALTON          PTCLDY    68  68 100 CALM      30.01S FOG
BELLEVILLE     CLEAR     68  68 100 SE5       30.01R
CAHOKIA*       CLEAR     70  67  90 SE7       29.99F FOG
SPARTA*        CLEAR     68  67  96 CALM      30.03R FOG
$$

ILZ064>066-069>071-074>076-080>082-084>086-088>090-092>094-061100-
SOUTH-CENTRAL ILLINOIS

CITY           SKY/WX    TMP DP  RH WIND       PRES   REMARKS
CARBONDALE     CLEAR     70  68  93 S3        30.03S FOG
CAIRO*         CLOUDY    74  73  95 SW5       30.06R
EFFINGHAM*     PTCLDY    65  63  91 E3        30.05S FOG
MARION         CLEAR     70  70 100 S5        30.05S FOG
MT. VERNON     MOCLDY    64  59  82 CALM      30.05S
CENTRALIA*     PTCLDY    69  65  88 SE5       30.03S FOG
SALEM*         PTCLDY    71  67  89 SE3       30.04R FOG
$$

ILZ067-068-072-073-078-083-087-091-061100-
SOUTHEAST ILLINOIS

CITY           SKY/WX    TMP DP  RH WIND       PRES   REMARKS
LAWRENCEVILLE  CLEAR     68  66  93 CALM      30.06R FOG
FLORA*         PTCLDY    66  65  99 CALM      30.05S FOG
FAIRFIELD*     PTCLDY    67  67  98 CALM      30.04S FOG
HARRISBURG*    MOCLDY    68  68 100 CALM      30.07R FOG
ROBINSON*      CLEAR     66  65  97 CALM      30.07R FOG
CARMI*         PTCLDY    68  64  88 CALM      30.05R FOG
$$

ABBREVIATIONS USED IN REMARKS
   TC - TEMPERATURE IN CELSIUS
  WCI - WIND CHILL INDEX
   HX - HEAT INDEX
  VSB - VISIBILITY
$$




USA.gov is the U.S. government's official web portal to all federal, state and local government web resources and services.